Hlavní strana
METAR-TAF:

METAR-TAF

Letiště :

Huntsville, Alabama, Spojené státy americké

zeměpisná šířka: 34-51-41N, zeměpisná délka: 086-33-26W, výška: 230 m

Aktuální stav počasí

Zpráva byla vytvořena před 22 minutami, v 01:15 UTC
Severozápadní vítr 6 kt
Teplota 12°C
Vlhkost vzduchu 54%
Tlak 1015 hPa
Viditelnost: 16.1 km
Jasno

METAR: KMDQ 200115Z AUTO 31006KT 10SM CLR 12/03 A2998 RMK A02 T01180028

Čas: 19:37 (01:37 UTC)


TAF: chybějící

Stav a předpovědi počasí z více než 4 000 letišť (zprávy METAR a TAF).

Červené a žluté tečky na mapě představují dostupné meteorologické stanice.

Když kurzor umístíte na tečku, zobrazí se název stanice.

Pak kliknutím zobrazíte stav a předpověď počasí.

Chcete-li změnit mapu, kliknutím na zelené tlačítko se znaménkem +mapu přiblížíte, kliknutím na zelené tlačítko se znaménkem – mapu oddálíte a kliknutím na zelené šipky přejdete na sousední mapy.


METAR-TAF: